STARLINK-5168 (54071 NORAD) Tracking and Keplerian Element Data

This shows tracking and keplerian element data for the satellite.

Feedback or suggestion? Click here.




ElementValue
Catalog54071
NameSTARLINK-5168
Epoch Orbit548
Epoch Day325.33334491
Epoch Year2022
RAAN352.6276
Inclination53.2171
Eccentricity0.0001753
Argument of Perigee44.8013
Mean Anonmoly158.5814
Mean Motion15.49431578
Decay Rate-0.0116856
L11 54071U 22136W 22325.33334491 -.01168560 00000+0 -22899-1 0 9994
L22 54071 53.2171 352.6276 0001753 44.8013 158.5814 15.49431578 5481



Live tracking and technical data element details for STARLINK-5168 (NORAD 54071). STARLINK-5168 can be tracked NOW for your location showing map with azimuth and elevation plus other details from your city location.







IsCatalogInMostPopularTable: catalog: 54071, numindb: 1
Update: records affected: 1



GetName: 54071 STARLINK-5168

Hit Count: updated at: Fri, 09 Dec 2022 20:22:41 GMT